Location: *
(46.0770°N, 1.6444°E)
Time: 19:14:39
(UTC+00:00)

Cosmos 2218 Rocket - Pass Details

Date: 16 September 2019
Orbit: 956 x 1006 km, 82.9° (Epoch: 19 October)

Event Time Altitude Azimuth Distance (km) Brightness Sun altitude
Rises 19:32:58 0° 356° (N) 3,746 7.4 -15.9°
Reaches altitude 10° 19:35:42 10° 3° (N) 2,788 6.6 -16.3°
Maximum altitude 19:41:44 42° 74° (ENE) 1,396 4.5 -17.3°
Enters shadow 19:44:34 27° 124° (SE) 1,794 4.8 -17.8°
